This demonstration page uses our WeatherBlox Daily Observations layout. Learn more.

Left ArrowRight Arrow

Hourly Observations for October 1, 2020

Temp ( °F °C ) Dew Point ( °F °C ) Humidity (%) Winds ( mph kmh ) Pressure ( in mb ) Visibility ( mi km ) Precip ( " mm )
12:53 am 00:53 Clear 65 18.3 28 -2.2 25 25 ESE 9 15 30.01 1016 10 16 0.00 0.00
1:53 am 01:53 Clear 65 18.3 29 -1.7 26 26 ESE 10 17 30.01 1016 10 16 0.00 0.00
2:53 am 02:53 Clear 64 17.8 29 -1.7 27 27 ESE 10 17 30.02 1017 10 16 0.00 0.00
3:53 am 03:53 Clear 60 15.6 30 -1.1 32 32 E 7 11 30.02 1017 10 16 0.00 0.00
4:53 am 04:53 Clear 55 12.8 30 -1.1 38 38 E 5 7 30.02 1017 10 16 0.00 0.00
5:53 am 05:53 Clear 54 12.2 31 -0.6 42 42 E 6 9 30.03 1017 10 16 0.00 0.00
6:53 am 06:53 Clear 54 12.2 31 -0.6 42 42 ENE 6 9 30.06 1018 10 16 0.00 0.00
7:53 am 07:53 Sunny 52 11.1 31 -0.6 45 45 E 5 7 30.08 1019 10 16 0.00 0.00
8:53 am 08:53 Sunny 59 15 32 0 36 36 NNE 5 7 30.11 1020 10 16 0.00 0.00
9:53 am 09:53 Sunny 69 20.6 34 1.1 27 27 E 6 9 30.12 1020 10 16 0.00 0.00
10:53 am 10:53 Sunny 74 23.3 34 1.1 23 23 E 6 9 30.14 1021 10 16 0.00 0.00
11:53 am 11:53 Sunny 79 26.1 34 1.1 20 20 ESE 7 11 30.14 1021 10 16 0.00 0.00
12:53 pm 12:53 Sunny 83 28.3 33 0.6 17 17 E 10 17 30.13 1020 10 16 0.00 0.00
1:53 pm 13:53 Sunny 85 29.4 33 0.6 15 15 SE 15 24 30.11 1020 10 16 0.00 0.00
2:53 pm 14:53 Sunny 84 28.9 33 0.6 16 16 ESE 12 19 30.09 1019 10 16 0.00 0.00
3:53 pm 15:53 Sunny 86 30 33 0.6 15 15 ESE 10 17 30.07 1018 10 16 0.00 0.00
4:53 pm 16:53 Sunny 87 30.6 33 0.6 14 14 ESE 15 24 30.06 1018 10 16 0.00 0.00
5:53 pm 17:53 Sunny 85 29.4 32 0 15 15 ESE 9 15 30.07 1018 10 16 0.00 0.00
6:53 pm 18:53 Sunny 83 28.3 33 0.6 17 17 E 13 20 30.07 1018 10 16 0.00 0.00
7:53 pm 19:53 Clear 77 25 34 1.1 21 21 E 8 13 30.09 1019 10 16 0.00 0.00
8:53 pm 20:53 Clear 73 22.8 35 1.7 25 25 E 8 13 30.10 1019 10 16 0.00 0.00
9:53 pm 21:53 Clear 72 22.2 40 4.4 31 31 E 12 19 30.11 1020 10 16 0.00 0.00
10:53 pm 22:53 Clear 69 20.6 42 5.6 38 38 E 9 15 30.13 1020 10 16 0.00 0.00
11:53 pm 23:53 Clear 67 19.4 42 5.6 41 41 E 10 17 30.12 1020 10 16 0.00 0.00

Powered by AerisWeather